DW0268 Weather Reports


time (UTC)temp
C
wind
direction
speed
KPH
gust
KPH
rain 1hr
cm
rain 24hr
cm
rain mn
cm
humidity
%
barometer
mb
20260901124531 24 194 3.2 8.0 0.00 0.00 0.00 94 1021.3
20260901123038 23 164 1.6 4.8 0.00 0.00 0.00 94 1021.3
20260901121528 23 164 1.6 4.8 0.00 0.00 0.00 93 1021.1
20260901120024 22 164 1.6 4.8 0.00 0.00 0.00 93 1020.9
20260901114522 23 163 0.0 3.2 0.00 0.00 0.00 92 1020.6
20260901113021 23 163 1.6 3.2 0.00 0.00 0.00 92 1020.4
20260901111519 23 163 1.6 8.0 0.00 0.00 0.00 92 1020.2
20260901110021 23 164 1.6 6.4 0.00 0.00 0.00 92 1020.1
20260901104525 23 156 3.2 8.0 0.00 0.00 0.00 92 1020.1
20260901103015 23 164 1.6 4.8 0.00 0.00 0.00 91 1020.0
20260901101514 23 161 3.2 6.4 0.00 0.00 0.00 91 1020.0
20260901100013 23 160 1.6 4.8 0.00 0.00 0.00 91 1020.0
20260901094512 23 161 0.0 0.0 0.00 0.00 0.00 91 1019.9
20260901093012 23 161 0.0 0.0 0.00 0.00 0.00 91 1019.8
20260901091512 23 160 0.0 1.6 0.00 0.00 0.00 92 1019.7
20260901090010 23 161 0.0 0.0 0.00 0.00 0.00 92 1019.6
20260901084508 23 161 1.6 3.2 0.00 0.00 0.00 91 1019.6
20260901083023 23 160 3.2 4.8 0.00 0.00 0.00 91 1019.5
20260901081506 23 160 1.6 3.2 0.00 0.00 0.00 91 1019.3
20260901080005 23 160 0.0 1.6 0.00 0.00 0.00 91 1019.1
20260901074508 23 160 1.6 3.2 0.00 0.00 0.00 90 1019.2
20260901073006 24 160 1.6 3.2 0.00 0.00 0.00 90 1019.0
20260901071502 24 160 1.6 4.8 0.00 0.00 0.00 90 1019.1
20260901070100 24 159 0.0 4.8 0.00 0.00 0.00 90 1018.8
20260901064559 24 159 3.2 4.8 0.00 0.00 0.00 90 1018.8
20260901063101 24 158 1.6 4.8 0.00 0.00 0.00 89 1019.2
20260901061601 24 146 1.6 4.8 0.00 0.00 0.00 88 1019.2
20260901060054 24 129 1.6 3.2 0.00 0.00 0.00 88 1019.2
20260901054552 25 129 0.0 1.6 0.00 0.00 0.00 86 1019.3
20260901053117 25 128 1.6 4.8 0.00 0.00 0.00 86 1019.2
20260901051548 25 127 3.2 6.4 0.00 0.00 0.00 84 1019.1
20260901050046 26 128 4.8 6.4 0.00 0.00 0.00 82 1019.3
20260901044542 27 104 1.6 6.4 0.00 0.00 0.00 81 1019.3
20260901043042 27 101 0.0 4.8 0.00 0.00 0.00 80 1019.3
20260901041542 27 113 4.8 6.4 0.00 0.00 0.00 78 1019.3
20260901040040 27 134 1.6 4.8 0.00 0.00 0.00 78 1019.2
20260901034539 27 137 3.2 8.0 0.00 0.00 0.00 76 1019.3
20260901033045 27 131 4.8 6.4 0.00 0.00 0.00 78 1019.4
20260901031548 27 113 1.6 3.2 0.00 0.00 0.00 79 1019.4
20260901030038 27 113 1.6 6.4 0.00 0.00 0.00 79 1019.4
20260901024537 28 101 1.6 4.8 0.00 0.00 0.00 79 1019.4
20260901023041 28 101 0.0 6.4 0.00 0.00 0.00 79 1019.3
20260901021537 28 119 1.6 4.8 0.00 0.00 0.00 79 1019.1
20260901020037 28 115 3.2 4.8 0.00 0.00 0.00 78 1018.8
20260901014537 28 111 0.0 1.6 0.00 0.00 0.00 77 1018.7
20260901013036 30 111 1.6 4.8 0.00 0.00 0.00 75 1018.3
20260901011535 30 111 1.6 4.8 0.00 0.00 0.00 74 1018.3
20260901010038 30 109 1.6 6.4 0.00 0.00 0.00 72 1018.1
20260901004533 31 107 1.6 4.8 0.00 0.00 0.00 72 1018.1
20260901003033 31 105 3.2 6.4 0.00 0.00 0.00 70 1018.0
20260901001531 32 165 1.6 4.8 0.00 0.00 0.00 68 1018.1
20260901000029 32 174 1.6 3.2 0.00 0.00 0.00 67 1018.1
20260831234528 32 174 1.6 4.8 0.00 0.00 0.00 67 1018.2
20260831233027 33 174 3.2 6.4 0.00 0.00 0.00 64 1018.3
20260831231626 34 182 1.6 11.3 0.00 0.00 0.00 60 1018.2
20260831230024 34 165 4.8 12.9 0.00 0.00 0.00 58 1018.3
20260831224524 34 153 4.8 11.3 0.00 0.00 0.00 56 1018.3
20260831223022 34 174 6.4 12.9 0.00 0.00 0.00 58 1018.5
20260831221531 34 188 6.4 12.9 0.00 0.00 0.00 55 1018.6
20260831220020 34 182 3.2 16.1 0.00 0.00 0.00 57 1018.6
20260831214519 35 163 3.2 12.9 0.00 0.00 0.00 57 1018.7
20260831213017 35 153 4.8 14.5 0.00 0.00 0.00 56 1018.8
20260831211516 34 140 4.8 16.1 0.00 0.00 0.00 57 1018.9
20260831210014 35 171 8.0 17.7 0.00 0.00 0.00 57 1019.1
20260831204512 34 130 8.0 16.1 0.00 0.00 0.00 59 1019.2
20260831203011 34 128 6.4 14.5 0.00 0.00 0.00 58 1019.2
20260831201510 34 207 9.7 17.7 0.00 0.00 0.00 58 1019.2
20260831200008 34 169 11.3 22.5 0.00 0.00 0.00 60 1019.5
20260831194516 34 171 4.8 16.1 0.00 0.00 0.00 60 1019.7
20260831193003 34 140 6.4 16.1 0.00 0.00 0.00 60 1019.9
20260831191502 33 167 11.3 17.7 0.00 0.00 0.00 61 1020.0
20260831190109 33 174 9.7 20.9 0.00 0.00 0.00 62 1020.0
20260831184658 33 165 8.0 25.7 0.00 0.00 0.00 63 1020.0
20260831183057 33 219 11.3 16.1 0.00 0.00 0.00 63 1020.2
20260831181554 33 217 9.7 17.7 0.00 0.00 0.00 63 1020.4
20260831180052 33 202 11.3 19.3 0.00 0.00 0.00 62 1020.6
20260831174557 33 151 4.8 17.7 0.00 0.00 0.00 64 1020.8
20260831173046 32 153 8.0 16.1 0.00 0.00 0.00 67 1021.0
20260831171545 32 201 8.0 16.1 0.00 0.00 0.00 67 1021.2
20260831170111 32 226 9.7 19.3 0.00 0.00 0.00 69 1021.3
20260831164539 32 182 9.7 19.3 0.00 0.00 0.00 69 1021.4
20260831163039 31 180 11.3 17.7 0.00 0.00 0.00 71 1021.5
20260831161532 31 219 12.9 19.3 0.00 0.00 0.00 72 1021.6
20260831160033 31 201 9.7 19.3 0.00 0.00 0.00 74 1021.7
20260831154527 30 165 8.0 16.1 0.00 0.00 0.00 75 1021.5
20260831153024 30 225 9.7 17.7 0.00 0.00 0.00 77 1021.6
20260831151526 29 215 11.3 17.7 0.00 0.00 0.00 78 1021.4
20260831150020 28 185 11.3 19.3 0.00 0.00 0.00 80 1021.2
20260831144524 28 188 11.3 16.1 0.00 0.00 0.00 82 1021.2
20260831143011 27 214 14.5 19.3 0.00 0.00 0.00 83 1021.1
20260831141512 27 199 6.4 12.9 0.00 0.00 0.00 86 1021.1
20260831140003 26 207 6.4 12.9 0.00 0.00 0.00 88 1021.2
20260831134600 26 216 8.0 12.9 0.00 0.00 0.00 89 1021.1
20260831133059 25 209 8.0 14.5 0.00 0.00 0.00 90 1021.2
20260831131557 24 196 6.4 12.9 0.00 0.00 0.00 92 1021.2
20260831130054 23 178 3.2 8.0 0.00 0.00 0.00 94 1021.0
20260831124553 23 168 3.2 8.0 0.00 0.00 0.00 94 1020.9